Content
SEND FEEDBACK

Daily
Averages
Monthly
Summary
United States of America

COWLES, NEW MEXICO


Home > North America > United States > New Mexico
Elevation: 7610 feet     Latitude: 35 46N     Longitude: 105 42W

WEATHER
 
SELECT A DAY
Number of Records: 172,230;   Date Range: 1/1/95 - 7/26/14
 
SHARE

PRINT THIS DATA

[ ← Previous Day ]
WEATHER ALMANAC - FEBRUARY 13, 2013
[ Next Day → ]
[ °C ]   °F
Weather ElementAverageHighLow
Temperature31.1 °F46 °F (2:53 pm)17.1 °F (2:53 am)
Dewpoint10.2 °F15.1 °F (10:53 pm)7 °F (1:53 am)
Humidity45 %68 % (5:53 am)22 % (2:53 pm)
Barometer30.08 in30.19 in (7:53 am)29.99 in (3:53 pm)
Wind Speed9.6 mph19.6 mph (9:53 am)
Wind Gust28.8 mph (9:53 am)
Weather ElementAverage
Visibility10 mi
Wind DirectionWNW (297.3 °)

Weather ElementTotal
Precipitation---
Heating Degree Days33.5 (Base 65)
Averaged from 22 records on February 13, 2013
WEATHER CONDITIONS BREAKOUT
WIND DIRECTION BREAKOUT
WEATHER BY HOUR - FEBRUARY 13, 2013
[ °C ]   °F
Local TimeTemperatureDewpointHumidityBarometerVisibilityWind DirectionWind SpeedGust SpeedPrecipitationEventsConditions
1:53 AM18.0 °F7.0 °F62 %30.15 in10.0 miWSW (250°)6.9 mphClear
2:53 AM17.1 °F7.0 °F65 %30.13 in10.0 miWNW (300°)3.5 mphClear
3:53 AM21.0 °F9.0 °F60 %30.09 in10.0 miNorth (350°)12.7 mphClear
5:53 AM18.0 °F9.0 °F68 %30.14 in10.0 miNorth (350°)11.5 mphClear
6:53 AM19.0 °F9.0 °F65 %30.16 in10.0 miNNW (330°)8.1 mphClear
7:53 AM21.0 °F9.0 °F60 %30.19 in10.0 miNorth (350°)10.4 mphClear
8:53 AM25.0 °F9.0 °F51 %30.17 in10.0 miNNW (340°)16.1 mph21.9 mphClear
9:53 AM30.0 °F8.1 °F40 %30.14 in10.0 miNorth (360°)19.6 mph28.8 mphClear
10:53 AM35.1 °F9.0 °F34 %30.11 in10.0 miNorth (350°)19.6 mphClear
11:53 AM39.9 °F7.0 °F26 %30.06 in10.0 miNNW (340°)16.1 mph24.2 mphClear
12:53 PM43.0 °F7.0 °F23 %30.03 in10.0 miNNW (340°)15.0 mph21.9 mphClear
1:53 PM44.1 °F8.1 °F23 %30.01 in10.0 miNNW (340°)12.7 mphClear
2:53 PM46.0 °F9.0 °F22 %30.00 in10.0 miNNW (340°)8.1 mphClear
3:53 PM44.1 °F9.0 °F24 %29.99 in10.0 miWest (270°)8.1 mphClear
4:53 PM43.0 °F12.0 °F28 %29.99 in10.0 miWSW (240°)6.9 mphClear
5:53 PM39.9 °F12.9 °F33 %30.03 in10.0 miWest (270°)3.5 mphClear
6:53 PM36.0 °F12.9 °F39 %30.06 in10.0 miVariable3.5 mphClear
7:53 PM30.0 °F12.9 °F49 %30.09 in10.0 miWest (270°)4.6 mphClear
8:53 PM30.0 °F12.9 °F49 %30.09 in10.0 miSSW (210°)6.9 mphClear
9:53 PM28.9 °F14.0 °F54 %30.07 in10.0 miNNW (340°)6.9 mphClear
10:53 PM28.0 °F15.1 °F58 %30.06 in10.0 miNW (310°)4.6 mphClear
11:53 PM28.0 °F15.1 °F58 %30.05 in10.0 miWNW (290°)5.8 mphClear
Hourly data recorded from KSAF, located miles away from Cowles, New Mexico







STORIES FROM OUR PARTNERS